Location: Lecco
(45.8566°N, 9.3977°E)
Time: 04:33:33
(UTC+02:00)

S-56A Canister/Altair - Pass Details

Date: 28 July 2019
Orbit: 633 x 2499 km, 38.9° (Epoch: 21 August)

Event Time Altitude Azimuth Distance (km) Brightness Sun altitude
Rises 14:19:25 0° 275° (W) 6,087 12.2 61.2°
Reaches altitude 10° 14:31:05 10° 236° (SW) 5,136 12.3 60.2°
Maximum altitude 14:31:06 10° 236° (SW) 5,136 12.3 60.2°
Drops below altitude 10° 14:31:13 10° 235° (SW) 5,135 12.3 60.2°
Sets 14:42:29 0° 194° (SSW) 5,810 12.4 59.1°
